Hourly Data Report for August 05, 2020

LYTTON RCS
BRITISH COLUMBIA
Current Station Operator: ECCC - MSC

50°13'28.000" N
121°34'55.000" W
225.00 m
1114746
71765
VLY

Download Data

Hourly Data (August 2020)
Hourly Data Report for August 5, 2020
TIME Temp Definition
°C
Dew Point Definition
°C
Rel Hum Definition
%
Wind Dir Definition
10's deg

Wind Spd Definition
km/h
Visibility Definition
km
Stn Press Definition
kPa
Hmdx Definition


Wind Chill Definition


Weather Definition


00:00 24.5 12.7 48 19 24   98.44 27   LegendNANA
01:00 23.3 13.0 52 19 23   98.46 26   LegendNANA
02:00 22.3 12.9 55 18 28   98.46 25   LegendNANA
03:00 21.8 12.9 57 18 28   98.45 25   LegendNANA
04:00 21.0 12.8 60 18 21   98.45     LegendNANA
05:00 20.2 12.8 62 17 20   98.46     LegendNANA
06:00 19.8 13.0 65 18 13   98.47     LegendNANA
07:00 20.2 13.5 65 18 19   98.45     LegendNANA
08:00 22.5 13.1 55 17 32   98.38 25   LegendNANA
09:00 24.7 12.3 46 19 28   98.27 27   LegendNANA
10:00 27.3 10.5 35 19 28   98.18 29   LegendNANA
11:00 29.3 9.8 30 18 33   98.13 30   LegendNANA
12:00 31.6 8.0 23 18 29   98.03 32   LegendNANA
13:00 32.9 7.7 21 18 30   97.95 33   LegendNANA
14:00 33.2 8.0 21 18 28   97.88 34   LegendNANA
15:00 33.1 8.3 22 18 30   97.81 34   LegendNANA
16:00 32.4 8.9 23 18 30   97.76 33   LegendNANA
17:00 31.5 8.5 24 18 31   97.73 32   LegendNANA
18:00 29.0 9.0 29 17 29   97.70 30   LegendNANA
19:00 28.0 8.9 30 18 29   97.71 29   LegendNANA
20:00 26.9 8.7 32 18 25   97.74 28   LegendNANA
21:00 26.1 8.3 32 18 22   97.78 27   LegendNANA
22:00 24.6 7.9 34 20 21   97.79 25   LegendNANA
23:00 23.3 8.9 40 20 24   97.81     LegendNANA

Notes on Data Quality.

Legend

  • E = Estimated
  • M = Missing
  • NA = Not Available*
  • [empty] = Indicates an unobserved value
Date modified: